Temperature
24 23 22 21 20 20 19 19 18 17 17 16 16 15 15 15 15 14 14 14 13 13 13 13 13 13 13 13 14 14 14 14 15 15 15 16 16 16 16 16 17 17 17
24 22 22 21 20 20 19 18 18 17 16 16 15 15 15 15 14 14 14 14 13 13 13 13 13 13 13 13 14 14 14 14 14 15 15 15 16 16 16 16 16 16 17
24 22 22 21 20 19 19 18 17 17 16 16 15 15 15 15 14 14 14 13 13 13 13 13 13 13 13 13 13 13 14 14 14 14 15 15 15 15 16 16 16 16 16
24 23 22 21 20 19 18 18 17 17 16 16 15 15 14 14 14 14 14 13 13 13 13 13 13 13 13 13 13 13 13 13 14 14 14 15 15 15 15 15 16 16 16
24 23 22 21 20 19 18 18 17 16 16 15 15 15 14 14 14 14 14 13 13 13 13 13 13 13 13 13 13 13 13 13 13 14 14 14 15 15 15 15 15 15 16
24 23 22 21 20 19 18 17 17 16 16 15 15 15 14 14 14 14 14 14 13 13 13 13 13 13 13 13 13 13 13 13 13 13 14 14 14 14 15 15 15 15 15
23 22 21 20 19 19 18 17 17 16 16 15 15 15 15 14 14 14 14 14 13 13 13 13 13 13 13 13 13 13 13 13 13 13 13 14 14 14 14 14 14 15 15
23 22 21 20 19 18 18 17 16 16 15 15 15 15 15 14 14 14 14 14 14 13 13 13 13 13 13 13 13 13 13 13 13 13 13 13 13 14 14 14 14 14 15
23 22 21 20 19 18 18 17 16 16 16 15 15 15 15 14 14 14 14 14 14 14 13 13 13 13 13 13 13 13 13 13 13 13 13 13 13 14 14 14 14 14 14
23 22 21 20 19 18 18 17 17 16 16 15 15 15 15 14 14 14 14 14 14 14 14 13 13 13 13 13 13 13 13 13 13 13 13 13 13 13 13 13 13 14 14
24 23 21 20 19 19 18 17 17 16 16 15 15 15 15 14 14 14 14 14 14 14 14 14 13 13 13 13 13 13 13 13 13 13 13 13 13 13 13 13 13 13 13
24 22 21 21 20 19 18 17 17 16 16 16 15 15 15 15 14 14 14 14 14 14 14 14 14 13 13 13 13 13 13 13 13 13 13 13 13 13 13 13 13 13 13
23 22 21 21 20 19 18 18 17 17 16 16 15 15 15 15 14 14 14 14 14 14 14 14 14 13 13 13 13 13 13 13 13 13 13 13 13 13 13 13 13 13 13
24 23 22 21 20 19 19 18 18 17 16 16 15 15 15 15 14 14 14 14 14 14 14 14 14 13 13 13 13 13 13 13 13 13 13 13 13 13 13 13 13 13 13
24 23 22 21 20 19 19 18 18 17 17 16 16 16 15 15 15 14 14 14 14 14 13 14 13 13 13 13 13 13 13 13 13 13 13 13 13 13 13 13 13 13 13
24 23 22 21 20 20 19 19 18 18 17 16 16 16 15 15 15 14 14 14 14 14 13 13 13 13 13 13 13 14 14 13 13 13 13 13 13 13 13 13 13 13 13
24 23 22 22 21 20 19 19 18 18 17 17 16 16 15 15 15 14 14 14 14 14 14 13 13 13 13 14 14 14 14 14 13 13 13 13 13 13 13 13 13 13 13
23 23 22 22 21 21 20 19 19 18 17 17 17 16 15 15 15 14 14 14 14 14 14 14 13 13 13 14 14 14 14 14 13 13 13 13 13 13 13 13 13 13 13
23 23 22 22 22 21 21 20 19 18 18 17 17 16 16 15 15 15 14 14 14 14 14 13 13 13 13 14 14 14 14 14 13 13 13 13 13 13 13 13 13 13 13
23 22 22 22 22 21 21 20 19 19 18 17 17 16 16 15 15 15 15 14 14 14 14 14 13 13 13 13 14 14 14 13 13 13 13 13 13 13 13 13 13 13 13
22 22 21 21 21 21 20 20 19 19 18 18 17 16 16 16 15 15 15 14 14 14 14 14 14 13 13 13 13 13 13 13 13 13 13 13 13 13 13 13 13 13 12
21 21 21 21 21 20 20 20 19 19 18 18 17 16 16 16 15 15 15 14 14 14 14 14 14 13 13 13 13 13 13 13 13 13 13 13 13 13 12 12 12 12 12
21 21 20 20 20 20 20 19 19 19 18 18 17 16 16 16 15 15 15 14 14 14 14 14 14 13 13 13 13 13 13 13 13 12 12 12 12 12 12 12 12 12 12
20 20 19 19 19 19 19 19 19 19 18 17 17 16 16 15 15 15 15 14 14 14 14 14 13 13 13 13 13 12 12 12 12 12 12 12 12 11 11 11 11 11 11
19 19 19 19 19 19 19 18 18 18 18 17 17 16 16 15 15 15 14 14 14 14 14 14 13 13 13 13 12 12 12 12 12 11 11 11 11 11 11 11 11 10 10
19 19 18 18 18 18 18 18 18 18 17 17 16 16 16 15 15 15 14 14 14 14 13 13 13 13 13 12 12 12 12 11 11 11 11 10 10 10 10 10 10 10 10
Wind_Speed
9 10 9 7 5 4 4 5 4 4 3 3 2 2 2 2 2 2 3 4 4 4 3 3 3 3 2 3 4 3 4 3 3 2 2 2 2 2 2 2 1 1 2
9 10 9 8 5 5 4 4 4 4 5 3 1 0 1 2 1 1 2 3 4 4 4 4 3 3 2 3 3 3 2 3 2 1 1 1 1 1 3 2 1 1 0
8 11 9 8 6 6 5 3 4 4 5 3 1 2 1 2 1 1 1 2 3 2 3 4 3 4 2 2 3 2 2 2 3 1 0 0 0 1 1 2 1 1 1
7 10 9 8 7 7 5 4 4 3 5 3 3 1 1 2 2 2 1 2 2 2 2 3 4 3 2 2 3 2 1 1 2 2 2 1 0 0 0 1 0 1 2
8 9 9 8 7 7 6 3 4 3 4 3 2 1 1 2 2 2 2 2 1 2 1 2 3 3 2 1 1 2 2 1 1 2 2 2 1 1 1 0 1 1 1
8 8 9 8 7 8 6 4 4 4 4 1 2 2 1 1 2 2 2 3 2 1 2 2 3 2 2 2 1 2 1 1 1 2 1 1 1 1 0 0 1 1 1
8 8 9 8 8 8 6 5 5 5 4 2 2 2 2 1 1 2 2 3 2 1 2 3 2 2 2 2 1 2 2 2 2 1 1 1 2 0 0 0 0 1 1
8 8 9 9 8 8 7 6 5 5 4 3 1 0 2 1 0 1 2 2 2 1 1 2 2 1 2 2 1 2 2 1 2 2 1 1 1 0 0 1 0 1 1
8 9 9 9 9 9 8 6 6 5 5 3 2 1 0 1 1 2 2 2 2 2 2 3 2 2 1 2 2 1 2 1 1 1 1 1 1 1 0 0 1 1 0
8 9 9 9 9 8 8 7 6 5 5 4 3 2 1 1 0 2 2 3 3 2 2 2 3 2 1 1 1 1 1 1 1 1 2 2 1 1 1 1 1 1 1
7 8 9 9 9 9 8 8 7 6 5 4 3 3 2 1 2 1 1 2 3 2 2 1 2 2 2 2 1 0 1 1 1 1 1 1 1 1 1 1 1 2 2
7 8 9 9 8 9 8 8 7 7 6 4 3 2 3 3 2 1 1 2 2 2 2 1 2 2 2 2 1 1 1 1 1 1 0 1 1 1 1 1 1 1 2
7 8 8 9 9 8 8 8 7 7 7 5 3 3 3 2 1 1 1 2 2 2 2 1 2 2 2 2 2 1 1 1 0 0 0 0 1 0 1 1 1 1 1
8 8 8 9 9 8 8 8 8 7 8 7 5 4 3 3 2 1 1 1 2 2 2 2 1 1 2 3 3 2 2 1 1 1 1 1 1 1 1 0 1 0 0
7 9 9 9 9 9 8 8 8 8 8 8 7 5 3 3 2 2 1 1 2 2 2 2 2 2 2 3 4 4 3 2 1 1 1 1 2 3 2 0 1 1 1
5 7 9 10 11 11 10 9 8 8 8 8 7 5 3 3 2 2 1 1 1 2 2 2 2 2 3 4 5 4 4 3 1 1 0 1 2 3 2 1 1 1 1
4 5 6 8 10 11 11 10 9 9 8 8 7 7 5 4 3 2 2 1 1 0 1 1 1 1 2 3 4 5 4 3 2 1 0 0 1 3 2 1 2 2 3
4 4 5 6 8 9 10 10 10 9 9 8 8 8 6 5 4 3 2 2 1 1 1 1 0 1 1 1 3 5 4 3 2 1 1 1 1 2 2 0 1 1 1
3 3 4 4 6 8 9 10 10 10 9 8 8 8 8 7 5 5 4 3 2 1 1 1 2 1 1 0 1 3 3 2 2 0 1 1 2 4 4 1 1 1 1
1 2 3 3 5 6 8 9 10 10 10 9 9 8 8 7 6 6 4 4 3 3 2 2 2 1 2 1 1 2 2 3 2 1 2 4 3 4 4 2 1 1 2
1 1 2 3 3 5 6 8 9 9 9 9 8 7 8 8 7 5 4 4 4 3 3 3 2 2 2 3 1 1 1 3 3 2 2 2 4 4 4 3 1 1 2
1 2 2 2 3 5 6 7 8 8 9 9 8 8 8 7 7 6 5 4 4 4 4 3 2 2 3 4 2 1 0 2 2 2 2 2 4 3 3 2 3 4 3
2 3 3 3 3 5 6 7 7 8 9 9 9 8 8 6 6 7 6 4 4 3 3 2 2 2 2 3 3 2 1 1 0 1 2 2 2 1 1 2 4 4 2
3 3 4 4 5 5 5 6 7 8 9 10 9 8 8 7 6 5 4 3 2 2 1 1 1 2 3 3 1 0 1 0 0 0 0 1 1 2 3 3 3 2 2
3 3 4 5 6 5 6 6 6 8 9 10 10 9 8 7 6 5 3 3 3 3 2 1 2 2 3 2 3 2 2 2 2 1 1 2 2 3 3 3 4 4 4
4 4 5 5 6 6 6 6 7 8 9 9 10 8 7 7 7 7 5 7 5 6 7 7 5 4 6 5 5 6 6 5 4 3 2 3 3 3 3 3 3 4 4
Wind_Direction
158 143 139 131 135 135 121 107 116 108 95 71 28 23 10 348 17 9 32 1 349 354 337 332 332 337 325 316 320 322 320 312 300 310 314 268 199 180 212 236 268 254 196
145 138 141 141 153 137 123 118 109 96 94 93 17 42 26 324 18 8 18 355 3 5 342 341 331 321 318 324 319 319 317 311 322 335 323 312 331 271 215 205 207 254 232
154 152 152 145 148 137 130 123 111 110 104 119 71 24 9 316 347 2 30 356 1 5 337 321 318 315 319 316 306 316 316 296 308 331 89 101 260 277 261 201 174 195 167
154 147 148 149 152 140 127 131 118 111 108 101 79 356 336 342 354 11 14 342 2 1 333 314 309 306 314 328 316 326 307 285 297 310 307 300 143 149 319 319 263 210 181
150 143 145 144 144 130 124 125 116 104 97 89 125 264 339 355 355 349 359 335 332 314 320 308 300 307 308 301 295 309 299 288 279 291 308 316 331 341 118 192 288 297 259
141 140 138 136 135 125 128 134 130 115 114 160 205 188 113 358 330 325 344 322 308 310 349 326 323 333 334 320 308 285 275 255 263 275 298 312 327 320 39 239 248 250 272
148 148 145 148 141 138 145 157 149 137 143 209 239 161 129 278 306 328 331 317 322 338 344 343 329 336 325 312 293 287 265 244 239 237 248 283 286 283 6 11 322 286 271
152 151 150 150 148 152 160 168 156 156 165 210 234 97 127 174 311 318 313 309 314 314 319 312 316 330 320 313 307 275 262 239 243 241 219 238 265 292 229 155 109 335 314
154 154 153 156 157 162 167 168 165 172 169 189 199 178 89 101 327 306 305 306 303 318 343 339 343 344 349 343 340 317 331 337 290 292 289 245 232 207 278 46 152 153 224
163 160 157 162 163 164 165 167 173 176 166 188 200 168 196 175 239 301 333 325 318 337 334 347 343 359 22 12 18 336 324 312 242 218 231 241 221 164 195 211 227 176 175
163 158 157 163 161 160 165 171 177 179 171 187 188 178 163 219 231 239 295 294 298 313 326 341 343 12 19 19 59 312 336 311 302 287 222 248 225 184 216 210 205 199 183
157 156 159 162 165 170 175 179 180 174 165 176 183 179 191 204 221 226 262 283 303 312 326 4 34 35 19 16 24 14 322 298 326 313 317 291 274 177 219 205 214 203 192
163 161 163 169 172 175 179 179 177 168 161 169 188 208 202 168 193 274 342 319 330 335 336 26 47 31 21 19 7 8 342 300 207 178 119 354 15 73 215 202 220 228 217
170 167 168 175 174 176 181 181 175 168 164 165 186 213 203 168 179 140 307 326 337 335 345 22 52 37 29 17 6 353 340 9 43 50 68 58 55 48 18 356 321 296 251
175 173 176 181 176 180 184 184 177 174 172 171 186 195 196 165 154 158 183 39 337 334 9 15 20 27 35 24 19 355 348 2 27 25 54 90 111 106 113 117 330 334 265
186 182 183 184 181 184 187 183 178 177 174 175 179 167 176 154 158 176 136 82 321 337 12 15 15 29 32 31 30 10 336 332 355 39 81 147 151 153 150 162 201 208 225
186 189 195 188 186 187 183 180 177 176 176 175 167 162 173 165 172 168 138 178 216 208 335 343 16 60 52 39 13 357 331 313 325 2 60 14 111 139 165 192 204 225 244
174 191 206 193 187 186 177 173 171 172 176 174 165 163 165 167 168 161 168 209 195 171 219 250 270 122 91 55 352 338 307 291 295 271 209 208 87 74 73 226 216 223 256
169 180 203 204 193 185 174 170 172 174 174 171 168 167 169 169 170 179 188 192 199 212 218 224 225 209 158 155 350 350 306 293 294 327 54 68 73 61 51 36 302 259 269
128 166 195 211 193 179 168 171 176 177 176 172 172 171 165 164 174 187 189 185 189 206 215 224 223 198 146 144 49 358 316 319 335 39 83 77 70 61 46 35 7 354 324
102 166 193 207 189 172 169 179 183 182 173 163 164 162 161 168 175 178 182 189 189 197 212 225 216 171 139 137 121 62 358 334 342 14 50 60 68 63 45 39 45 320 316
210 204 211 207 187 177 178 189 189 170 153 153 161 167 168 177 175 171 187 196 191 197 211 217 217 175 146 134 146 138 28 345 354 2 45 65 67 53 35 26 359 348 351
229 213 225 216 201 194 190 195 180 158 153 158 166 171 173 177 168 170 182 191 195 196 205 197 191 166 137 131 137 145 108 10 40 48 55 75 62 13 28 14 5 8 6
248 213 217 222 219 208 202 199 173 162 164 169 174 178 181 175 167 159 161 162 167 179 189 173 159 135 104 80 62 153 159 112 85 267 59 75 56 37 21 15 18 31 35
259 229 222 225 227 214 205 195 178 176 180 181 180 184 182 170 157 136 112 138 117 145 154 124 97 103 107 84 63 69 67 71 80 58 63 58 54 53 53 45 38 35 33
271 252 237 227 230 223 211 194 188 191 193 190 186 183 175 165 157 144 119 72 104 108 106 106 112 94 106 116 93 81 74 70 68 79 81 71 65 62 55 47 39 40 33
Height
1487 1489 1493 1496 1498 1500 1501 1501 1501 1501 1501 1501 1500 1500 1500 1499 1498 1497 1496 1495 1493 1492 1491 1491 1490 1490 1489 1489 1489 1489 1489 1489 1490 1490 1490 1490 1491 1492 1493 1495 1496 1497 1499
1484 1487 1491 1494 1497 1498 1500 1500 1500 1500 1500 1499 1499 1499 1499 1498 1497 1496 1495 1493 1492 1491 1490 1489 1488 1488 1488 1487 1487 1487 1487 1488 1489 1489 1489 1489 1491 1491 1492 1493 1494 1496 1498
1483 1486 1489 1492 1495 1497 1498 1499 1499 1499 1499 1498 1498 1498 1498 1497 1497 1495 1494 1493 1491 1490 1489 1488 1487 1487 1486 1486 1486 1486 1486 1486 1487 1488 1489 1489 1489 1490 1491 1491 1492 1494 1496
1482 1485 1488 1491 1493 1495 1497 1498 1498 1498 1498 1498 1497 1497 1497 1496 1496 1495 1493 1492 1490 1489 1487 1486 1486 1485 1485 1484 1484 1484 1484 1485 1485 1486 1488 1489 1489 1490 1490 1491 1491 1493 1494
1480 1483 1486 1489 1492 1493 1495 1496 1497 1497 1496 1496 1496 1496 1496 1495 1495 1494 1492 1491 1489 1488 1487 1485 1484 1484 1483 1483 1482 1482 1483 1483 1484 1485 1486 1487 1488 1489 1489 1490 1491 1492 1493
1479 1482 1485 1488 1490 1492 1493 1495 1495 1495 1495 1495 1495 1495 1495 1494 1493 1493 1492 1490 1489 1487 1486 1485 1484 1483 1482 1481 1481 1481 1482 1482 1483 1484 1484 1486 1487 1488 1488 1489 1490 1491 1492
1478 1481 1484 1486 1488 1490 1491 1493 1494 1494 1494 1494 1494 1494 1494 1493 1493 1492 1491 1490 1489 1487 1485 1484 1483 1481 1480 1480 1480 1480 1480 1481 1482 1482 1483 1484 1485 1486 1487 1488 1489 1489 1490
1477 1479 1482 1484 1486 1488 1490 1491 1492 1492 1492 1493 1493 1493 1493 1492 1492 1491 1490 1489 1488 1487 1485 1483 1482 1481 1479 1479 1479 1479 1479 1480 1481 1481 1482 1483 1484 1485 1486 1487 1488 1488 1489
1475 1478 1480 1482 1484 1486 1488 1489 1490 1490 1491 1491 1492 1492 1492 1491 1491 1490 1489 1488 1488 1486 1485 1483 1482 1480 1479 1478 1477 1477 1478 1479 1479 1480 1481 1482 1483 1484 1484 1485 1487 1488 1488
1473 1476 1478 1480 1482 1484 1486 1487 1488 1489 1489 1490 1490 1491 1490 1490 1490 1489 1488 1488 1487 1486 1484 1483 1482 1480 1479 1478 1477 1477 1477 1477 1478 1479 1479 1480 1481 1482 1483 1484 1485 1486 1487
1471 1473 1476 1478 1480 1482 1483 1485 1486 1487 1488 1488 1489 1489 1489 1489 1489 1488 1487 1487 1486 1485 1484 1483 1481 1480 1479 1478 1477 1477 1477 1477 1477 1478 1478 1479 1480 1481 1482 1483 1484 1485 1486
1469 1471 1473 1476 1478 1480 1481 1482 1484 1485 1485 1486 1487 1488 1488 1487 1487 1487 1486 1486 1485 1485 1484 1483 1482 1480 1479 1478 1477 1477 1476 1476 1476 1477 1477 1478 1478 1479 1480 1481 1482 1483 1484
1466 1469 1471 1473 1475 1477 1479 1480 1481 1482 1483 1484 1485 1486 1486 1486 1486 1486 1485 1485 1485 1484 1483 1482 1481 1480 1479 1478 1477 1477 1476 1476 1476 1476 1476 1476 1477 1478 1479 1479 1480 1481 1482
1463 1465 1468 1470 1472 1474 1476 1477 1479 1480 1481 1482 1483 1484 1485 1485 1485 1484 1484 1484 1483 1483 1483 1482 1481 1480 1479 1478 1477 1477 1476 1476 1476 1476 1476 1476 1476 1476 1477 1478 1478 1479 1480
1460 1462 1464 1466 1468 1470 1472 1474 1476 1477 1478 1480 1481 1482 1483 1483 1483 1483 1483 1482 1482 1482 1482 1481 1480 1480 1479 1478 1477 1477 1476 1476 1476 1476 1475 1475 1475 1476 1476 1476 1477 1478 1479
1457 1459 1460 1462 1464 1466 1468 1471 1472 1474 1476 1477 1478 1479 1480 1481 1481 1481 1481 1481 1481 1481 1481 1480 1480 1479 1478 1478 1477 1477 1476 1476 1476 1475 1475 1475 1475 1475 1475 1475 1476 1477 1477
1454 1455 1457 1459 1461 1462 1464 1467 1469 1471 1473 1475 1476 1477 1478 1479 1479 1479 1480 1479 1479 1479 1479 1479 1479 1478 1478 1477 1477 1476 1476 1476 1475 1475 1475 1475 1475 1474 1475 1475 1475 1475 1476
1451 1453 1454 1456 1458 1459 1461 1463 1466 1468 1470 1472 1473 1474 1475 1476 1477 1477 1478 1478 1478 1478 1478 1478 1478 1477 1477 1476 1476 1476 1475 1475 1475 1475 1474 1474 1474 1474 1474 1474 1474 1474 1475
1449 1450 1451 1453 1455 1456 1458 1460 1462 1465 1467 1468 1470 1471 1472 1473 1474 1475 1476 1476 1476 1477 1477 1477 1477 1476 1476 1476 1475 1475 1474 1474 1474 1474 1474 1473 1473 1473 1473 1473 1473 1473 1474
1447 1448 1449 1450 1451 1453 1455 1457 1459 1461 1463 1464 1466 1468 1469 1470 1471 1472 1473 1474 1475 1475 1475 1475 1475 1475 1475 1474 1474 1474 1473 1473 1473 1473 1473 1473 1472 1472 1472 1472 1472 1472 1472
1445 1446 1447 1448 1449 1450 1452 1454 1456 1457 1459 1461 1463 1465 1466 1467 1469 1470 1471 1472 1473 1473 1473 1474 1474 1474 1473 1473 1473 1472 1472 1472 1472 1471 1471 1471 1471 1471 1471 1471 1471 1471 1471
1444 1444 1444 1445 1446 1447 1448 1450 1452 1453 1455 1457 1459 1461 1463 1464 1466 1467 1468 1469 1470 1471 1471 1472 1472 1472 1471 1471 1471 1471 1471 1470 1470 1470 1470 1470 1470 1470 1469 1469 1469 1469 1469
1442 1442 1442 1442 1443 1443 1445 1446 1448 1450 1451 1453 1455 1457 1459 1461 1462 1463 1465 1466 1467 1468 1469 1469 1470 1470 1469 1469 1469 1469 1469 1469 1468 1468 1468 1468 1468 1468 1468 1468 1468 1468 1468
1440 1439 1439 1439 1439 1440 1441 1442 1444 1445 1447 1448 1450 1453 1455 1457 1458 1459 1461 1462 1463 1464 1465 1466 1467 1467 1467 1467 1467 1467 1467 1467 1466 1467 1467 1467 1467 1467 1467 1467 1467 1467 1467
1437 1436 1435 1435 1435 1436 1437 1438 1439 1440 1442 1444 1446 1448 1450 1452 1453 1455 1457 1458 1459 1461 1462 1462 1463 1464 1464 1464 1465 1465 1464 1464 1464 1465 1465 1465 1465 1465 1465 1465 1465 1465 1465
1433 1432 1431 1431 1431 1432 1432 1433 1434 1435 1437 1439 1441 1443 1445 1447 1449 1450 1452 1453 1455 1457 1458 1459 1460 1460 1461 1461 1462 1462 1462 1462 1462 1463 1463 1463 1463 1463 1463 1464 1463 1463 1463